Time,TemperatureF,DewpointF,PressureIn,WindDirection,WindDirectionDegrees,WindSpeedMPH,WindSpeedGustMPH,Humidity,HourlyPrecipIn,Conditions,Clouds,dailyrainin,SoftwareType,DateUTC
2013-01-29 01:32:00,24.0,23.0,-100.00,North,350,0.0,3.0,94,-99.99,,,-99.99,,2013-01-29 06:32:00,
2013-01-29 01:42:00,24.0,23.0,-100.00,WNW,295,0.0,3.0,94,-99.99,,,-99.99,,2013-01-29 06:42:00,
2013-01-29 01:52:00,24.0,23.0,-100.00,WNW,290,1.0,6.0,94,-99.99,,,-99.99,,2013-01-29 06:52:00,
2013-01-29 02:02:00,24.0,23.0,-100.00,North,355,1.0,5.0,94,-99.99,,,-99.99,,2013-01-29 07:02:00,
2013-01-29 02:32:00,24.0,23.0,-100.00,North,0,2.0,6.0,94,-99.99,,,-99.99,,2013-01-29 07:32:00,
2013-01-29 02:42:00,24.0,23.0,-100.00,North,355,2.0,5.0,94,-99.99,,,-99.99,,2013-01-29 07:42:00,
2013-01-29 02:52:00,24.0,23.0,-100.00,NNE,15,1.0,3.0,94,-99.99,,,-99.99,,2013-01-29 07:52:00,
2013-01-29 03:02:00,24.0,23.0,-100.00,North,355,1.0,5.0,94,-99.99,,,-99.99,,2013-01-29 08:02:00,
2013-01-29 03:11:00,24.0,23.0,-100.00,East,80,1.0,5.0,94,-99.99,,,-99.99,,2013-01-29 08:11:00,
2013-01-29 03:21:00,24.0,23.0,-100.00,West,270,0.0,3.0,94,-99.99,,,-99.99,,2013-01-29 08:21:00,
2013-01-29 03:32:00,25.0,23.0,-100.00,North,350,1.0,1.0,94,-99.99,,,-99.99,,2013-01-29 08:32:00,
2013-01-29 03:42:00,25.0,23.0,-100.00,North,355,0.0,2.0,94,-99.99,,,-99.99,,2013-01-29 08:42:00,
2013-01-29 03:52:00,25.0,23.0,-100.00,NE,40,0.0,3.0,94,-99.99,,,-99.99,,2013-01-29 08:52:00,
2013-01-29 04:02:00,24.0,23.0,-100.00,North,350,2.0,6.0,94,-99.99,,,-99.99,,2013-01-29 09:02:00,
2013-01-29 04:11:00,24.0,23.0,-100.00,North,350,1.0,6.0,94,-99.99,,,-99.99,,2013-01-29 09:11:00,
2013-01-29 04:21:00,24.0,23.0,-100.00,North,355,1.0,3.0,94,-99.99,,,-99.99,,2013-01-29 09:21:00,
2013-01-29 04:30:00,24.0,23.0,-100.00,West,280,0.0,5.0,94,-99.99,,,-99.99,,2013-01-29 09:30:00,
2013-01-29 04:32:00,24.0,23.0,-100.00,NW,315,1.0,9.0,94,-99.99,,,-99.99,,2013-01-29 09:32:00,
2013-01-29 04:42:00,24.0,23.0,-100.00,WSW,255,0.0,9.0,94,-99.99,,,-99.99,,2013-01-29 09:42:00,
2013-01-29 04:51:00,24.0,23.0,-100.00,West,280,0.0,2.0,94,-99.99,,,-99.99,,2013-01-29 09:51:00,
2013-01-29 05:02:00,24.0,23.0,-100.00,NNW,345,0.0,1.0,94,-99.99,,,-99.99,,2013-01-29 10:02:00,
2013-01-29 05:11:00,24.0,23.0,-100.00,West,280,0.0,5.0,94,-99.99,,,-99.99,,2013-01-29 10:11:00,
2013-01-29 05:21:00,24.0,23.0,-100.00,West,280,0.0,5.0,94,-99.99,,,-99.99,,2013-01-29 10:21:00,
2013-01-29 07:33:00,23.0,21.0,-100.00,WSW,245,0.0,5.0,94,-99.99,,,-99.99,,2013-01-29 12:33:00,
2013-01-29 07:43:00,23.0,21.0,-100.00,SW,215,1.0,3.0,94,-99.99,,,-99.99,,2013-01-29 12:43:00,
2013-01-29 07:52:00,23.0,21.0,-100.00,North,355,2.0,6.0,94,-99.99,,,-99.99,,2013-01-29 12:52:00,
2013-01-29 08:02:00,23.0,22.0,-100.00,North,350,0.0,2.0,94,-99.99,,,-99.99,,2013-01-29 13:02:00,
2013-01-29 10:22:00,27.0,25.0,-100.00,WNW,300,1.0,6.0,91,-99.99,,,-99.99,,2013-01-29 15:22:00,
2013-01-29 10:30:00,30.0,26.0,-100.00,NNW,345,0.0,2.0,86,-99.99,,,-99.99,,2013-01-29 15:30:00,
2013-01-29 10:33:00,27.0,25.0,-100.00,North,5,1.0,6.0,91,-99.99,,,-99.99,,2013-01-29 15:33:00,
2013-01-29 10:43:00,28.0,25.0,-100.00,SW,230,0.0,3.0,90,-99.99,,,-99.99,,2013-01-29 15:43:00,
2013-01-29 10:53:00,28.0,25.0,-100.00,West,270,0.0,2.0,90,-99.99,,,-99.99,,2013-01-29 15:53:00,
2013-01-29 11:03:00,28.0,25.0,-100.00,West,270,0.0,2.0,90,-99.99,,,-99.99,,2013-01-29 16:03:00,
2013-01-29 11:13:00,30.0,26.0,-100.00,NNW,345,0.0,2.0,86,-99.99,,,-99.99,,2013-01-29 16:13:00,
2013-01-29 11:23:00,30.0,26.0,-100.00,NNW,345,0.0,2.0,86,-99.99,,,-99.99,,2013-01-29 16:23:00,
2013-01-29 12:33:00,32.0,26.0,-100.00,NNE,30,3.0,6.0,81,-99.99,,,-99.99,,2013-01-29 17:33:00,
2013-01-29 12:42:00,32.0,26.0,-100.00,NNE,15,3.0,7.0,81,-99.99,,,-99.99,,2013-01-29 17:42:00,
2013-01-29 12:52:00,32.0,27.0,-100.00,NE,35,1.0,6.0,82,-99.99,,,-99.99,,2013-01-29 17:52:00,
2013-01-29 13:04:00,32.0,27.0,-100.00,North,355,1.0,6.0,82,-99.99,,,-99.99,,2013-01-29 18:04:00,
2013-01-29 13:13:00,32.0,27.0,-100.00,North,355,1.0,6.0,82,-99.99,,,-99.99,,2013-01-29 18:13:00,
2013-01-29 13:22:00,33.0,28.0,-100.00,NW,305,1.0,5.0,82,-99.99,,,-99.99,,2013-01-29 18:22:00,
2013-01-29 13:33:00,33.0,28.0,-100.00,NNE,20,2.0,6.0,82,-99.99,,,-99.99,,2013-01-29 18:33:00,
2013-01-29 13:42:00,33.0,28.0,-100.00,NNE,15,2.0,6.0,82,-99.99,,,-99.99,,2013-01-29 18:42:00,
2013-01-29 13:52:00,33.0,28.0,-100.00,West,280,1.0,8.0,82,-99.99,,,-99.99,,2013-01-29 18:52:00,
2013-01-29 14:03:00,33.0,28.0,-100.00,NNE,30,2.0,5.0,81,-99.99,,,-99.99,,2013-01-29 19:03:00,
2013-01-29 14:12:00,34.0,28.0,-100.00,West,280,0.0,5.0,79,-99.99,,,-99.99,,2013-01-29 19:12:00,
2013-01-29 14:23:00,34.0,28.0,-100.00,North,10,2.0,3.0,79,-99.99,,,-99.99,,2013-01-29 19:23:00,
2013-01-29 14:33:00,34.0,28.0,-100.00,WNW,295,1.0,3.0,79,-99.99,,,-99.99,,2013-01-29 19:33:00,
2013-01-29 14:42:00,34.0,28.0,-100.00,West,260,1.0,2.0,79,-99.99,,,-99.99,,2013-01-29 19:42:00,
2013-01-29 14:52:00,34.0,28.0,-100.00,SSE,150,0.0,2.0,79,-99.99,,,-99.99,,2013-01-29 19:52:00,
2013-01-29 15:03:00,34.0,28.0,-100.00,North,5,1.0,5.0,79,-99.99,,,-99.99,,2013-01-29 20:03:00,
2013-01-29 15:13:00,34.0,28.0,-100.00,West,275,0.0,3.0,80,-99.99,,,-99.99,,2013-01-29 20:13:00,
2013-01-29 15:23:00,34.0,28.0,-100.00,SE,135,1.0,5.0,79,-99.99,,,-99.99,,2013-01-29 20:23:00,
2013-01-29 15:33:00,34.0,28.0,-100.00,SSW,200,1.0,5.0,79,-99.99,,,-99.99,,2013-01-29 20:33:00,
2013-01-29 15:42:00,34.0,28.0,-100.00,SSW,200,2.0,5.0,79,-99.99,,,-99.99,,2013-01-29 20:42:00,
2013-01-29 15:53:00,34.0,28.0,-100.00,SSE,155,1.0,5.0,79,-99.99,,,-99.99,,2013-01-29 20:53:00,
2013-01-29 16:03:00,34.0,28.0,-100.00,SW,235,1.0,2.0,80,-99.99,,,-99.99,,2013-01-29 21:03:00,
2013-01-29 16:10:00,33.0,29.0,-100.00,SW,230,2.0,6.0,82,-99.99,,,-99.99,,2013-01-29 21:10:00,
2013-01-29 16:12:00,34.0,29.0,-100.00,SSE,160,1.0,6.0,81,-99.99,,,-99.99,,2013-01-29 21:12:00,
2013-01-29 16:22:00,34.0,28.0,-100.00,South,175,2.0,5.0,81,-99.99,,,-99.99,,2013-01-29 21:22:00,
2013-01-29 16:34:00,34.0,29.0,-100.00,East,80,2.0,5.0,81,-99.99,,,-99.99,,2013-01-29 21:34:00,
2013-01-29 16:42:00,34.0,29.0,-100.00,SE,135,2.0,5.0,81,-99.99,,,-99.99,,2013-01-29 21:42:00,
2013-01-29 16:52:00,33.0,29.0,-100.00,SW,230,2.0,6.0,82,-99.99,,,-99.99,,2013-01-29 21:52:00,
2013-01-29 17:03:00,33.0,29.0,-100.00,SW,230,2.0,6.0,82,-99.99,,,-99.99,,2013-01-29 22:03:00,
2013-01-29 19:22:00,33.0,30.0,-100.00,WNW,290,1.0,3.0,89,-99.99,,,-99.99,,2013-01-30 00:22:00,
2013-01-29 19:43:00,33.0,30.0,-100.00,ESE,110,1.0,2.0,89,-99.99,,,-99.99,,2013-01-30 00:43:00,
2013-01-29 19:52:00,33.0,30.0,-100.00,SSE,155,1.0,3.0,89,-99.99,,,-99.99,,2013-01-30 00:52:00,
2013-01-29 20:02:00,33.0,30.0,-100.00,NW,325,0.0,2.0,89,-99.99,,,-99.99,,2013-01-30 01:02:00,
2013-01-29 20:12:00,33.0,30.0,-100.00,WNW,290,1.0,2.0,89,-99.99,,,-99.99,,2013-01-30 01:12:00,
2013-01-29 20:22:00,33.0,30.0,-100.00,SSW,195,0.0,1.0,89,-99.99,,,-99.99,,2013-01-30 01:22:00,
2013-01-29 20:32:00,33.0,30.0,-100.00,SSW,205,1.0,1.0,90,-99.99,,,-99.99,,2013-01-30 01:32:00,
2013-01-29 20:42:00,32.0,30.0,-100.00,ESE,120,0.0,1.0,90,-99.99,,,-99.99,,2013-01-30 01:42:00,
2013-01-29 20:52:00,32.0,30.0,-100.00,ESE,120,0.0,1.0,90,-99.99,,,-99.99,,2013-01-30 01:52:00,
2013-01-29 21:02:00,32.0,30.0,-100.00,WNW,295,0.0,1.0,90,-99.99,,,-99.99,,2013-01-30 02:02:00,
2013-01-29 21:12:00,32.0,30.0,-100.00,South,190,1.0,1.0,90,-99.99,,,-99.99,,2013-01-30 02:12:00,
2013-01-29 22:00:00,32.0,31.0,-100.00,SE,140,2.0,3.0,93,-99.99,,,-99.99,,2013-01-30 03:00:00,
2013-01-29 22:32:00,32.0,31.0,-100.00,ENE,75,1.0,2.0,93,-99.99,,,-99.99,,2013-01-30 03:32:00,
2013-01-29 22:42:00,32.0,31.0,-100.00,SE,140,2.0,3.0,93,-99.99,,,-99.99,,2013-01-30 03:42:00,
2013-01-29 22:52:00,32.0,31.0,-100.00,SE,140,2.0,3.0,93,-99.99,,,-99.99,,2013-01-30 03:52:00,